Time,TemperatureF,DewpointF,PressureIn,WindDirection,WindDirectionDegrees,WindSpeedMPH,WindSpeedGustMPH,Humidity,HourlyPrecipIn,Conditions,Clouds,dailyrainin,SoftwareType,DateUTC
2013-01-05 00:00:00,27.9,23.7,29.43,SSE,156,15.0,15.0,84,0.00,,,0.00,Wunderground v.1.15,2013-01-05 09:00:00,
2013-01-05 00:10:00,28.1,23.9,29.43,SSE,159,16.0,16.0,84,0.00,,,0.00,Wunderground v.1.15,2013-01-05 09:10:00,
2013-01-05 00:20:00,28.1,23.9,29.43,SSE,152,16.0,16.0,84,0.00,,,0.00,Wunderground v.1.15,2013-01-05 09:20:00,
2013-01-05 00:25:00,27.8,23.9,29.43,SSE,156,16.0,16.0,85,0.00,,,0.00,Wunderground v.1.15,2013-01-05 09:25:00,
2013-01-05 00:35:00,27.8,23.9,29.43,SSE,156,10.0,15.0,85,0.00,,,0.00,Wunderground v.1.15,2013-01-05 09:35:00,
2013-01-05 00:40:00,28.1,24.5,29.43,SSE,156,17.0,20.0,86,0.00,,,0.00,Wunderground v.1.15,2013-01-05 09:40:00,
2013-01-05 00:45:00,28.1,24.5,29.43,SSE,155,17.0,20.0,86,0.00,,,0.00,Wunderground v.1.15,2013-01-05 09:45:00,
2013-01-05 00:55:00,27.9,24.3,29.43,SSE,157,18.0,22.0,86,0.00,,,0.00,Wunderground v.1.15,2013-01-05 09:55:00,
2013-01-05 01:05:00,27.9,24.5,29.42,SSE,160,17.0,18.0,87,0.00,,,0.00,Wunderground v.1.15,2013-01-05 10:05:00,
2013-01-05 01:10:00,27.9,24.5,29.42,SSE,153,17.0,21.0,87,0.00,,,0.00,Wunderground v.1.15,2013-01-05 10:10:00,
2013-01-05 01:20:00,27.9,24.5,29.42,SSE,155,16.0,16.0,87,0.00,,,0.00,Wunderground v.1.15,2013-01-05 10:20:00,
2013-01-05 01:25:00,28.1,24.7,29.42,SSE,156,17.0,21.0,87,0.00,,,0.00,Wunderground v.1.15,2013-01-05 10:25:00,
2013-01-05 01:30:00,27.9,24.5,29.42,SSE,156,18.0,22.0,87,0.00,,,0.00,Wunderground v.1.15,2013-01-05 10:30:00,
2013-01-05 01:35:00,28.1,24.7,29.42,SSE,156,18.0,22.0,87,0.00,,,0.00,Wunderground v.1.15,2013-01-05 10:35:00,
2013-01-05 01:45:00,27.9,24.8,29.42,SSE,156,16.0,18.0,88,0.00,,,0.00,Wunderground v.1.15,2013-01-05 10:45:00,
2013-01-05 01:50:00,27.9,24.8,29.42,SSE,156,13.0,13.0,88,0.00,,,0.00,Wunderground v.1.15,2013-01-05 10:50:00,
2013-01-05 02:00:00,27.9,24.8,29.41,SE,142,15.0,22.0,88,0.00,,,0.00,Wunderground v.1.15,2013-01-05 11:00:00,
2013-01-05 02:05:00,28.1,25.0,29.41,SSE,155,14.0,22.0,88,0.00,,,0.00,Wunderground v.1.15,2013-01-05 11:05:00,
2013-01-05 02:10:00,28.2,24.8,29.41,SSE,156,14.0,16.0,87,0.00,,,0.00,Wunderground v.1.15,2013-01-05 11:10:00,
2013-01-05 02:20:00,28.7,24.5,29.40,SSE,155,13.0,13.0,84,0.00,,,0.00,Wunderground v.1.15,2013-01-05 11:20:00,
2013-01-05 02:25:00,28.8,24.6,29.40,SSE,155,13.0,13.0,84,0.00,,,0.00,Wunderground v.1.15,2013-01-05 11:25:00,
2013-01-05 02:35:00,29.0,24.5,29.39,SSE,156,12.0,14.0,83,0.00,,,0.00,Wunderground v.1.15,2013-01-05 11:35:00,
2013-01-05 02:40:00,29.4,24.0,29.39,SSE,149,14.0,14.0,80,0.00,,,0.00,Wunderground v.1.15,2013-01-05 11:40:00,
2013-01-05 02:50:00,29.5,23.5,29.39,SE,146,13.0,14.0,78,0.00,,,0.00,Wunderground v.1.15,2013-01-05 11:50:00,
2013-01-05 03:00:00,29.8,23.2,29.39,SSE,156,15.0,16.0,76,0.00,,,0.00,Wunderground v.1.15,2013-01-05 12:00:00,
2013-01-05 03:05:00,29.8,23.2,29.39,SSE,156,15.0,16.0,76,0.00,,,0.00,Wunderground v.1.15,2013-01-05 12:05:00,
2013-01-05 03:15:00,30.0,23.0,29.38,SE,139,17.0,17.0,75,0.00,,,0.00,Wunderground v.1.15,2013-01-05 12:15:00,
2013-01-05 03:20:00,30.0,23.0,29.38,South,172,15.0,17.0,75,0.00,,,0.00,Wunderground v.1.15,2013-01-05 12:20:00,
2013-01-05 03:25:00,30.0,23.0,29.38,South,172,17.0,17.0,75,0.00,,,0.00,Wunderground v.1.15,2013-01-05 12:25:00,
2013-01-05 03:35:00,29.8,22.8,29.37,SSE,150,14.0,18.0,75,0.00,,,0.00,Wunderground v.1.15,2013-01-05 12:35:00,
2013-01-05 03:45:00,30.0,23.0,29.36,SSE,156,17.0,20.0,75,0.00,,,0.00,Wunderground v.1.15,2013-01-05 12:45:00,
2013-01-05 03:50:00,30.0,22.7,29.36,SSE,156,16.0,16.0,74,0.00,,,0.00,Wunderground v.1.15,2013-01-05 12:50:00,
2013-01-05 04:00:00,29.8,22.5,29.36,SSE,149,16.0,16.0,74,0.00,,,0.00,Wunderground v.1.15,2013-01-05 13:00:00,
2013-01-05 04:05:00,29.5,22.2,29.36,SSE,156,19.0,19.0,74,0.00,,,0.00,Wunderground v.1.15,2013-01-05 13:05:00,
2013-01-05 04:15:00,29.1,21.8,29.35,SSE,152,15.0,16.0,74,0.00,,,0.00,Wunderground v.1.15,2013-01-05 13:15:00,
2013-01-05 04:20:00,28.5,21.3,29.35,SE,140,11.0,11.0,74,0.00,,,0.00,Wunderground v.1.15,2013-01-05 13:20:00,
2013-01-05 04:25:00,28.4,21.2,29.35,SSE,148,14.0,14.0,74,0.00,,,0.00,Wunderground v.1.15,2013-01-05 13:25:00,
2013-01-05 04:35:00,28.1,20.9,29.35,SE,146,14.0,18.0,74,0.00,,,0.00,Wunderground v.1.15,2013-01-05 13:35:00,
2013-01-05 04:40:00,28.1,20.9,29.35,SSE,156,14.0,14.0,74,0.00,,,0.00,Wunderground v.1.15,2013-01-05 13:40:00,
2013-01-05 04:50:00,27.6,20.4,29.34,SE,146,14.0,14.0,74,0.00,,,0.00,Wunderground v.1.15,2013-01-05 13:50:00,
2013-01-05 05:00:00,28.2,21.0,29.34,SE,133,14.0,16.0,74,0.00,,,0.00,Wunderground v.1.15,2013-01-05 14:00:00,
2013-01-05 05:05:00,29.1,21.8,29.34,SSE,155,15.0,16.0,74,0.00,,,0.00,Wunderground v.1.15,2013-01-05 14:05:00,
2013-01-05 05:15:00,29.8,21.5,29.34,SSE,150,15.0,17.0,71,0.00,,,0.00,Wunderground v.1.15,2013-01-05 14:15:00,
2013-01-05 05:25:00,30.1,22.2,29.34,SSE,153,15.0,15.0,72,0.00,,,0.00,Wunderground v.1.15,2013-01-05 14:25:00,
2013-01-05 05:30:00,30.1,22.2,29.33,SSE,150,15.0,18.0,72,0.00,,,0.00,Wunderground v.1.15,2013-01-05 14:30:00,
2013-01-05 05:40:00,30.4,22.4,29.33,SE,142,15.0,15.0,72,0.00,,,0.00,Wunderground v.1.15,2013-01-05 14:40:00,
2013-01-05 05:45:00,30.6,22.6,29.33,SSE,150,15.0,16.0,72,0.00,,,0.00,Wunderground v.1.15,2013-01-05 14:45:00,
2013-01-05 05:50:00,30.7,22.4,29.33,SSE,156,16.0,18.0,71,0.00,,,0.00,Wunderground v.1.15,2013-01-05 14:50:00,
2013-01-05 06:00:00,30.9,22.6,29.32,SSE,156,18.0,18.0,71,0.00,,,0.00,Wunderground v.1.15,2013-01-05 15:00:00,
2013-01-05 06:10:00,31.0,22.7,29.32,SSE,156,19.0,19.0,71,0.00,,,0.00,Wunderground v.1.15,2013-01-05 15:10:00,
2013-01-05 06:20:00,30.9,22.9,29.31,SSE,155,17.0,21.0,72,0.00,,,0.00,Wunderground v.1.15,2013-01-05 15:20:00,
2013-01-05 06:25:00,30.9,22.9,29.31,SSE,155,18.0,21.0,72,0.00,,,0.00,Wunderground v.1.15,2013-01-05 15:25:00,
2013-01-05 06:35:00,30.9,22.6,29.31,SSE,156,18.0,21.0,71,0.00,,,0.00,Wunderground v.1.15,2013-01-05 15:35:00,
2013-01-05 06:45:00,30.9,22.9,29.31,SSE,156,19.0,19.0,72,0.00,,,0.00,Wunderground v.1.15,2013-01-05 15:45:00,
2013-01-05 06:50:00,30.7,22.7,29.31,SSE,155,19.0,19.0,72,0.00,,,0.00,Wunderground v.1.15,2013-01-05 15:50:00,
2013-01-05 07:00:00,30.6,22.6,29.31,SSE,156,14.0,14.0,72,0.00,,,0.00,Wunderground v.1.15,2013-01-05 16:00:00,
2013-01-05 07:05:00,30.4,22.4,29.31,SE,140,17.0,17.0,72,0.00,,,0.00,Wunderground v.1.15,2013-01-05 16:05:00,
2013-01-05 07:15:00,30.6,22.6,29.30,SSE,150,17.0,17.0,72,0.00,,,0.00,Wunderground v.1.15,2013-01-05 16:15:00,
2013-01-05 07:20:00,30.6,22.6,29.30,SSE,150,14.0,14.0,72,0.00,,,0.00,Wunderground v.1.15,2013-01-05 16:20:00,
2013-01-05 07:25:00,-999.9,-99.9,29.30,North,32767,-999.0,14.0,255,-99.99,,,0.00,Wunderground v.1.15,2013-01-05 16:25:00,
2013-01-05 07:35:00,-999.9,-99.9,29.30,North,32767,-999.0,0.0,255,-99.99,,,0.00,Wunderground v.1.15,2013-01-05 16:35:00,
2013-01-05 07:45:00,-999.9,-99.9,29.30,North,32767,-999.0,0.0,255,-99.99,,,0.00,Wunderground v.1.15,2013-01-05 16:45:00,
2013-01-05 07:55:00,-999.9,-99.9,29.30,North,32767,-999.0,0.0,255,-99.99,,,0.00,Wunderground v.1.15,2013-01-05 16:55:00,
2013-01-05 08:05:00,-999.9,-99.9,29.29,North,32767,-999.0,0.0,255,-99.99,,,0.00,Wunderground v.1.15,2013-01-05 17:05:00,
2013-01-05 08:15:00,-999.9,-99.9,29.29,North,32767,-999.0,0.0,255,-99.99,,,0.00,Wunderground v.1.15,2013-01-05 17:15:00,
2013-01-05 08:25:00,-999.9,-99.9,29.29,North,32767,-999.0,0.0,255,-99.99,,,0.00,Wunderground v.1.15,2013-01-05 17:25:00,
2013-01-05 08:35:00,-999.9,-99.9,29.29,North,32767,-999.0,0.0,255,-99.99,,,0.00,Wunderground v.1.15,2013-01-05 17:35:00,
2013-01-05 08:45:00,-999.9,-99.9,29.28,SSE,156,18.0,18.0,255,0.00,,,0.00,Wunderground v.1.15,2013-01-05 17:45:00,
2013-01-05 08:55:00,30.4,22.1,29.28,SSE,156,20.0,20.0,71,0.00,,,0.00,Wunderground v.1.15,2013-01-05 17:55:00,
2013-01-05 09:00:00,30.3,21.7,29.28,SSE,156,19.0,21.0,70,0.00,,,0.00,Wunderground v.1.15,2013-01-05 18:00:00,
2013-01-05 09:10:00,30.3,21.3,29.28,SSE,156,20.0,20.0,69,0.00,,,0.00,Wunderground v.1.15,2013-01-05 18:10:00,
2013-01-05 09:15:00,30.3,21.3,29.28,SSE,156,18.0,20.0,69,0.00,,,0.00,Wunderground v.1.15,2013-01-05 18:15:00,
2013-01-05 09:25:00,-999.9,-99.9,29.28,North,32767,-999.0,0.0,255,-99.99,,,0.00,Wunderground v.1.15,2013-01-05 18:25:00,
2013-01-05 09:30:00,-999.9,-99.9,29.28,North,32767,-999.0,0.0,255,-99.99,,,0.00,Wunderground v.1.15,2013-01-05 18:30:00,
2013-01-05 09:40:00,29.7,22.4,29.28,SSE,160,22.0,25.0,74,0.00,,,0.00,Wunderground v.1.15,2013-01-05 18:40:00,
2013-01-05 09:45:00,29.5,22.2,29.28,SSE,156,21.0,25.0,74,0.00,,,0.00,Wunderground v.1.15,2013-01-05 18:45:00,
2013-01-05 09:50:00,29.5,22.2,29.28,SSE,156,16.0,16.0,74,0.00,,,0.00,Wunderground v.1.15,2013-01-05 18:50:00,
2013-01-05 09:55:00,-999.9,-99.9,29.28,North,32767,-999.0,16.0,255,-99.99,,,0.00,Wunderground v.1.15,2013-01-05 18:55:00,
2013-01-05 10:05:00,-999.9,-99.9,29.29,North,32767,-999.0,0.0,255,-99.99,,,0.00,Wunderground v.1.15,2013-01-05 19:05:00,
2013-01-05 10:15:00,27.6,24.0,29.28,SSE,152,18.0,18.0,86,0.00,,,0.00,Wunderground v.1.15,2013-01-05 19:15:00,
2013-01-05 10:25:00,27.8,23.6,29.28,SSE,156,19.0,19.0,84,0.00,,,0.00,Wunderground v.1.15,2013-01-05 19:25:00,
2013-01-05 10:30:00,27.8,23.6,29.28,SSE,153,19.0,19.0,84,0.00,,,0.00,Wunderground v.1.15,2013-01-05 19:30:00,
2013-01-05 10:40:00,27.6,23.7,29.28,SSE,155,13.0,13.0,85,0.00,,,0.00,Wunderground v.1.15,2013-01-05 19:40:00,
2013-01-05 10:45:00,27.6,23.7,29.28,SE,139,19.0,19.0,85,0.00,,,0.00,Wunderground v.1.15,2013-01-05 19:45:00,
2013-01-05 10:55:00,27.5,24.4,29.28,SE,142,19.0,19.0,88,0.00,,,0.00,Wunderground v.1.15,2013-01-05 19:55:00,
2013-01-05 11:05:00,27.5,24.7,29.28,SSE,150,18.0,21.0,89,0.00,,,0.00,Wunderground v.1.15,2013-01-05 20:05:00,
2013-01-05 11:10:00,27.8,25.0,29.28,SSE,155,19.0,19.0,89,0.00,,,0.00,Wunderground v.1.15,2013-01-05 20:10:00,
2013-01-05 11:20:00,27.9,25.1,29.27,SSE,156,16.0,16.0,89,0.00,,,0.00,Wunderground v.1.15,2013-01-05 20:20:00,
2013-01-05 11:25:00,27.9,25.1,29.27,SSE,156,14.0,16.0,89,0.00,,,0.00,Wunderground v.1.15,2013-01-05 20:25:00,
2013-01-05 11:35:00,-999.9,-99.9,29.27,North,32767,-999.0,0.0,255,-99.99,,,0.00,Wunderground v.1.15,2013-01-05 20:35:00,
2013-01-05 11:45:00,27.8,24.7,29.27,SSE,153,20.0,20.0,88,0.00,,,0.00,Wunderground v.1.15,2013-01-05 20:45:00,
2013-01-05 11:55:00,27.8,24.7,29.27,SE,146,12.0,20.0,88,0.00,,,0.00,Wunderground v.1.15,2013-01-05 20:55:00,
2013-01-05 12:00:00,27.6,24.8,29.27,SE,140,15.0,15.0,89,0.00,,,0.00,Wunderground v.1.15,2013-01-05 21:00:00,
2013-01-05 12:10:00,27.3,24.5,29.27,SSE,155,16.0,16.0,89,0.00,,,0.00,Wunderground v.1.15,2013-01-05 21:10:00,
2013-01-05 12:20:00,27.3,24.5,29.27,SSE,148,14.0,14.0,89,0.00,,,0.00,Wunderground v.1.15,2013-01-05 21:20:00,
2013-01-05 12:25:00,27.8,24.7,29.27,SE,136,19.0,19.0,88,0.00,,,0.00,Wunderground v.1.15,2013-01-05 21:25:00,
2013-01-05 12:35:00,28.1,24.5,29.26,SE,135,17.0,20.0,86,0.00,,,0.00,Wunderground v.1.15,2013-01-05 21:35:00,
2013-01-05 12:40:00,28.4,23.3,29.26,SE,132,15.0,15.0,81,0.00,,,0.00,Wunderground v.1.15,2013-01-05 21:40:00,
2013-01-05 12:50:00,28.5,23.4,29.25,SE,138,15.0,15.0,81,0.00,,,0.00,Wunderground v.1.15,2013-01-05 21:50:00,
2013-01-05 13:00:00,-999.9,-99.9,29.25,North,32767,-999.0,0.0,255,-99.99,,,0.00,Wunderground v.1.15,2013-01-05 22:00:00,
2013-01-05 13:10:00,28.2,-99.9,29.25,SSE,150,13.0,13.0,255,0.00,,,0.00,Wunderground v.1.15,2013-01-05 22:10:00,
2013-01-05 13:20:00,27.9,22.2,29.25,SE,128,15.0,16.0,79,0.00,,,0.00,Wunderground v.1.15,2013-01-05 22:20:00,
2013-01-05 13:25:00,27.9,22.2,29.25,SE,133,19.0,19.0,79,0.00,,,0.00,Wunderground v.1.15,2013-01-05 22:25:00,
2013-01-05 13:35:00,27.8,21.5,29.24,SSE,149,14.0,14.0,77,0.00,,,0.00,Wunderground v.1.15,2013-01-05 22:35:00,
2013-01-05 13:40:00,28.4,22.1,29.24,SE,139,14.0,14.0,77,0.00,,,0.00,Wunderground v.1.15,2013-01-05 22:40:00,
2013-01-05 13:50:00,28.8,20.9,29.23,ESE,121,14.0,18.0,72,0.00,,,0.00,Wunderground v.1.15,2013-01-05 22:50:00,
2013-01-05 13:55:00,28.8,20.9,29.23,ESE,121,18.0,18.0,72,0.00,,,0.00,Wunderground v.1.15,2013-01-05 22:55:00,
2013-01-05 14:00:00,29.0,20.8,29.22,SE,146,14.0,14.0,71,0.00,,,0.00,Wunderground v.1.15,2013-01-05 23:00:00,
2013-01-05 14:10:00,29.0,20.8,29.22,SE,146,16.0,17.0,71,0.00,,,0.00,Wunderground v.1.15,2013-01-05 23:10:00,
2013-01-05 14:20:00,29.0,20.4,29.22,SE,129,16.0,17.0,70,0.00,,,0.00,Wunderground v.1.15,2013-01-05 23:20:00,
2013-01-05 14:30:00,28.8,19.9,29.21,SE,145,16.0,18.0,69,0.00,,,0.00,Wunderground v.1.15,2013-01-05 23:30:00,
2013-01-05 14:40:00,28.5,19.6,29.21,SSE,156,17.0,17.0,69,0.00,,,0.00,Wunderground v.1.15,2013-01-05 23:40:00,
2013-01-05 14:45:00,28.5,19.6,29.21,SE,131,17.0,18.0,69,0.00,,,0.00,Wunderground v.1.15,2013-01-05 23:45:00,
2013-01-05 14:55:00,28.1,19.2,29.21,ESE,118,16.0,19.0,69,0.00,,,0.00,Wunderground v.1.15,2013-01-05 23:55:00,
2013-01-05 15:00:00,28.1,19.2,29.20,ESE,118,17.0,17.0,69,0.00,,,0.00,Wunderground v.1.15,2013-01-06 00:00:00,
2013-01-05 15:05:00,28.1,19.2,29.20,SE,146,18.0,18.0,69,0.00,,,0.00,Wunderground v.1.15,2013-01-06 00:05:00,
2013-01-05 15:15:00,28.1,19.2,29.20,SE,128,17.0,18.0,69,0.00,,,0.00,Wunderground v.1.15,2013-01-06 00:15:00,
2013-01-05 15:25:00,28.2,19.0,29.20,SE,135,15.0,19.0,68,0.00,,,0.00,Wunderground v.1.15,2013-01-06 00:25:00,
2013-01-05 15:30:00,28.2,19.0,29.20,SE,135,19.0,19.0,68,0.00,,,0.00,Wunderground v.1.15,2013-01-06 00:30:00,
2013-01-05 15:35:00,28.4,19.2,29.20,SSE,148,16.0,19.0,68,0.00,,,0.00,Wunderground v.1.15,2013-01-06 00:35:00,
2013-01-05 15:45:00,28.8,19.6,29.20,SE,139,14.0,16.0,68,0.00,,,0.00,Wunderground v.1.15,2013-01-06 00:45:00,
2013-01-05 15:55:00,29.3,20.0,29.20,SSE,156,14.0,17.0,68,0.00,,,0.00,Wunderground v.1.15,2013-01-06 00:55:00,
2013-01-05 16:00:00,29.3,20.0,29.20,SE,132,15.0,15.0,68,0.00,,,0.00,Wunderground v.1.15,2013-01-06 01:00:00,
2013-01-05 16:05:00,29.3,20.0,29.20,SE,132,11.0,15.0,68,0.00,,,0.00,Wunderground v.1.15,2013-01-06 01:05:00,
2013-01-05 16:15:00,29.0,19.8,29.20,SE,145,10.0,10.0,68,0.00,,,0.00,Wunderground v.1.15,2013-01-06 01:15:00,
2013-01-05 16:20:00,29.3,19.7,29.20,SE,143,14.0,14.0,67,0.00,,,0.00,Wunderground v.1.15,2013-01-06 01:20:00,
2013-01-05 16:30:00,29.4,19.8,29.19,SE,138,13.0,13.0,67,0.00,,,0.00,Wunderground v.1.15,2013-01-06 01:30:00,
2013-01-05 16:40:00,29.4,19.4,29.19,SE,124,13.0,13.0,66,0.00,,,0.00,Wunderground v.1.15,2013-01-06 01:40:00,
2013-01-05 16:45:00,29.1,19.2,29.19,SE,132,12.0,13.0,66,0.00,,,0.00,Wunderground v.1.15,2013-01-06 01:45:00,
2013-01-05 16:55:00,29.1,19.2,29.19,SE,128,14.0,14.0,66,0.00,,,0.00,Wunderground v.1.15,2013-01-06 01:55:00,
2013-01-05 17:05:00,29.3,19.3,29.19,SE,129,13.0,14.0,66,0.00,,,0.00,Wunderground v.1.15,2013-01-06 02:05:00,
2013-01-05 17:10:00,29.3,19.3,29.19,SE,129,14.0,14.0,66,0.00,,,0.00,Wunderground v.1.15,2013-01-06 02:10:00,
2013-01-05 17:15:00,-999.9,-99.9,29.18,North,32767,-999.0,14.0,255,-99.99,,,0.00,Wunderground v.1.15,2013-01-06 02:15:00,
2013-01-05 17:25:00,-999.9,-99.9,29.18,North,32767,-999.0,0.0,255,-99.99,,,0.00,Wunderground v.1.15,2013-01-06 02:25:00,
2013-01-05 17:35:00,27.8,19.3,29.18,ESE,109,11.0,14.0,70,0.00,,,0.00,Wunderground v.1.15,2013-01-06 02:35:00,
2013-01-05 17:40:00,27.8,19.3,29.18,ESE,109,11.0,14.0,70,0.00,,,0.00,Wunderground v.1.15,2013-01-06 02:40:00,
2013-01-05 17:50:00,27.8,19.6,29.18,SE,143,11.0,12.0,71,0.00,,,0.00,Wunderground v.1.15,2013-01-06 02:50:00,
2013-01-05 18:00:00,28.2,20.0,29.18,SSE,156,8.0,8.0,71,0.00,,,0.00,Wunderground v.1.15,2013-01-06 03:00:00,
2013-01-05 18:05:00,29.0,20.1,29.18,SE,140,11.0,12.0,69,0.00,,,0.00,Wunderground v.1.15,2013-01-06 03:05:00,
2013-01-05 18:15:00,29.7,20.1,29.18,SE,132,11.0,12.0,67,0.00,,,0.00,Wunderground v.1.15,2013-01-06 03:15:00,
2013-01-05 18:20:00,29.7,20.4,29.18,SE,140,11.0,12.0,68,0.00,,,0.00,Wunderground v.1.15,2013-01-06 03:20:00,
2013-01-05 18:30:00,30.0,20.4,29.18,SE,135,12.0,12.0,67,0.00,,,0.00,Wunderground v.1.15,2013-01-06 03:30:00,
2013-01-05 18:40:00,30.1,20.1,29.18,SSE,149,12.0,12.0,66,0.00,,,0.00,Wunderground v.1.15,2013-01-06 03:40:00,
2013-01-05 18:45:00,30.4,20.4,29.18,SE,146,14.0,14.0,66,0.00,,,0.00,Wunderground v.1.15,2013-01-06 03:45:00,
2013-01-05 18:55:00,29.5,20.6,29.18,SSE,153,10.0,12.0,69,0.00,,,0.00,Wunderground v.1.15,2013-01-06 03:55:00,
2013-01-05 19:05:00,29.5,20.6,29.18,SE,146,8.0,9.0,69,0.00,,,0.00,Wunderground v.1.15,2013-01-06 04:05:00,
2013-01-05 19:15:00,29.4,20.8,29.18,SSE,156,8.0,8.0,70,0.00,,,0.00,Wunderground v.1.15,2013-01-06 04:15:00,
2013-01-05 19:20:00,29.4,20.8,29.18,SSE,156,7.0,8.0,70,0.00,,,0.00,Wunderground v.1.15,2013-01-06 04:20:00,
2013-01-05 19:30:00,29.8,19.8,29.18,SSE,162,11.0,12.0,66,0.00,,,0.00,Wunderground v.1.15,2013-01-06 04:30:00,
2013-01-05 19:40:00,29.8,19.5,29.18,SSE,152,13.0,13.0,65,0.00,,,0.00,Wunderground v.1.15,2013-01-06 04:40:00,
2013-01-05 19:50:00,29.8,19.5,29.17,SSE,149,13.0,13.0,65,0.00,,,0.00,Wunderground v.1.15,2013-01-06 04:50:00,
2013-01-05 20:05:00,30.1,19.4,29.17,SSE,156,11.0,13.0,64,0.00,,,0.00,Wunderground v.1.15,2013-01-06 05:05:00,
2013-01-05 20:10:00,30.0,19.3,29.17,SSE,159,12.0,12.0,64,0.00,,,0.00,Wunderground v.1.15,2013-01-06 05:10:00,
2013-01-05 20:15:00,29.8,19.1,29.17,SSE,157,12.0,12.0,64,0.00,,,0.00,Wunderground v.1.15,2013-01-06 05:15:00,
2013-01-05 20:20:00,29.5,19.2,29.17,SSE,155,10.0,12.0,65,0.00,,,0.00,Wunderground v.1.15,2013-01-06 05:20:00,
2013-01-05 20:30:00,29.3,19.3,29.16,SSE,148,11.0,11.0,66,0.00,,,0.00,Wunderground v.1.15,2013-01-06 05:30:00,
2013-01-05 20:40:00,29.7,19.0,29.16,SE,138,13.0,13.0,64,0.00,,,0.00,Wunderground v.1.15,2013-01-06 05:40:00,
2013-01-05 20:45:00,29.5,18.8,29.16,SE,143,13.0,13.0,64,0.00,,,0.00,Wunderground v.1.15,2013-01-06 05:45:00,
2013-01-05 20:55:00,29.4,19.4,29.16,ESE,119,14.0,16.0,66,0.00,,,0.00,Wunderground v.1.15,2013-01-06 05:55:00,
2013-01-05 21:05:00,29.4,19.8,29.15,SE,124,15.0,15.0,67,0.00,,,0.00,Wunderground v.1.15,2013-01-06 06:05:00,
2013-01-05 21:10:00,29.4,19.8,29.15,North,32767,-999.0,0.0,67,0.00,,,0.00,Wunderground v.1.15,2013-01-06 06:10:00,
2013-01-05 21:20:00,-999.9,-99.9,29.17,North,32767,-999.0,0.0,255,-99.99,,,0.00,Wunderground v.1.15,2013-01-06 06:20:00,
2013-01-05 21:30:00,28.4,19.2,29.17,NNE,25,8.0,8.0,68,0.00,,,0.00,Wunderground v.1.15,2013-01-06 06:30:00,
2013-01-05 21:40:00,28.4,19.2,29.17,NE,52,7.0,7.0,68,0.00,,,0.00,Wunderground v.1.15,2013-01-06 06:40:00,
2013-01-05 21:45:00,27.9,18.7,29.17,East,92,6.0,7.0,68,0.00,,,0.00,Wunderground v.1.15,2013-01-06 06:45:00,
2013-01-05 21:55:00,28.1,19.2,29.17,East,94,5.0,7.0,69,0.00,,,0.00,Wunderground v.1.15,2013-01-06 06:55:00,
2013-01-05 22:05:00,27.8,19.6,29.17,East,94,5.0,6.0,71,0.00,,,0.00,Wunderground v.1.15,2013-01-06 07:05:00,
2013-01-05 22:15:00,27.5,19.7,29.17,ESE,115,11.0,11.0,72,0.00,,,0.00,Wunderground v.1.15,2013-01-06 07:15:00,
2013-01-05 22:20:00,27.5,19.3,29.17,SE,128,6.0,7.0,71,0.00,,,0.00,Wunderground v.1.15,2013-01-06 07:20:00,
2013-01-05 22:30:00,27.3,18.8,29.17,East,91,6.0,6.0,70,0.00,,,0.00,Wunderground v.1.15,2013-01-06 07:30:00,
2013-01-05 22:35:00,27.5,19.0,29.17,ENE,74,6.0,6.0,70,0.00,,,0.00,Wunderground v.1.15,2013-01-06 07:35:00,
2013-01-05 22:40:00,27.5,19.0,29.17,East,87,5.0,5.0,70,0.00,,,0.00,Wunderground v.1.15,2013-01-06 07:40:00,
2013-01-05 22:50:00,26.7,18.6,29.17,East,98,7.0,11.0,71,0.00,,,0.00,Wunderground v.1.15,2013-01-06 07:50:00,
2013-01-05 22:55:00,26.6,18.5,29.17,East,92,8.0,11.0,71,0.00,,,0.00,Wunderground v.1.15,2013-01-06 07:55:00,
2013-01-05 23:05:00,26.7,18.9,29.17,ESE,104,5.0,6.0,72,0.00,,,0.00,Wunderground v.1.15,2013-01-06 08:05:00,
2013-01-05 23:10:00,26.7,18.9,29.17,ESE,109,8.0,8.0,72,0.00,,,0.00,Wunderground v.1.15,2013-01-06 08:10:00,
2013-01-05 23:20:00,26.1,18.3,29.17,ESE,118,9.0,12.0,72,0.00,,,0.00,Wunderground v.1.15,2013-01-06 08:20:00,
2013-01-05 23:25:00,26.0,18.2,29.17,ESE,112,9.0,12.0,72,0.00,,,0.00,Wunderground v.1.15,2013-01-06 08:25:00,
2013-01-05 23:35:00,26.0,18.5,29.17,ESE,121,8.0,8.0,73,0.00,,,0.00,Wunderground v.1.15,2013-01-06 08:35:00,
2013-01-05 23:40:00,26.0,18.5,29.17,SE,135,6.0,6.0,73,0.00,,,0.00,Wunderground v.1.15,2013-01-06 08:40:00,
2013-01-05 23:50:00,26.0,18.8,29.18,ESE,121,6.0,6.0,74,0.00,,,0.00,Wunderground v.1.15,2013-01-06 08:50:00,
2013-01-05 23:55:00,26.3,19.1,29.18,ESE,118,4.0,6.0,74,0.00,,,0.00,Wunderground v.1.15,2013-01-06 08:55:00,